AirNav  
 
 476 users online  

31AZ Benson Airport
Benson, Arizona, USA

GOING TO BENSON?


FAA INFORMATION EFFECTIVE 25 FEBRUARY 2021

Location

FAA Identifier: 31AZ
Lat/Long: 31-57-49.3000N 110-15-35.2610W
31-57.821667N 110-15.587683W
31.9636944,-110.2597947
(estimated)
Elevation: 3628 ft. / 1105.8 m (surveyed)
Variation: 12E (1985)
From city: 2 miles E of BENSON, AZ
Time zone: UTC -7 (year round; does not observe DST)
Zip code: 85602

Airport Operations

Airport use: Private use. Permission required prior to landing
Activation date: 02/1947
Control tower: no
ARTCC: ALBUQUERQUE CENTER
FSS: PRESCOTT FLIGHT SERVICE STATION
Attendance: UNATNDD
Wind indicator: yes
Segmented circle: no

Airport Communications

WX AWOS-3 at E95 (5 nm NW): 118.475 (520-265-5232)

Nearby radio navigation aids

VOR radial/distance  VOR name  Freq  Var
FHUr359/23.0LIBBY VOR/DME113.6013E
TUSr091/34.2TUCSON VORTAC116.0012E

Airport Services

Fuel available: 100 80
Airframe service: NONE
Powerplant service: NONE
Bottled oxygen: NONE
Bulk oxygen: NONE

Runway Information

Runway 8/26

Dimensions: 4800 x 140 ft. / 1463 x 43 m
Surface: dirt, in fair condition
RUNWAY 8  RUNWAY 26
Traffic pattern: leftleft
Runway end identifier lights: nono
Obstructions: pline, 300 ft. from runway, 6:1 slope to clear
5' BRUSH AT THR; 4' BANK; AND 5' FENCE 110' FROM W END.
none

Airport Ownership and Management from official FAA records

Ownership: Privately-owned
Owner: BEN A TAYLOR
BOX 54
BENSON, AZ 85602
Phone 602-586-3421
Manager: BEN A TAYLOR
BOX 54
BENSON, AZ 85602
Phone 602-586-3421

Airport Operational Statistics

Aircraft based on the field: 8
Single engine airplanes: 8
    
Aircraft operations: avg 58/month *
71% military
14% transient general aviation
14% local general aviation
* for 12-month period ending 05 October 1990

Additional Remarks

USE AT PILOTS OWN RISK--PRIOR CONTACT RECOMMENDED.
GOPHER HOLES, SLICK & MUDDY WHEN WET
FOR CD CTC ALBUQUERQUE ARTCC AT 505-856-4861.

Instrument Procedures

There are no published instrument procedures at 31AZ.

Some nearby airports with instrument procedures:

KFHU - Sierra Vista Municipal Airport-Libby Army Airfield (23 nm S)
P33 - Cochise County Airport (25 nm NE)
KDMA - Davis Monthan Air Force Base (34 nm W)
KTUS - Tucson International Airport (36 nm W)
KOLS - Nogales International Airport (44 nm SW)
 
Loc | Ops | Rwys | IFR | FBO | Links
Com | Nav | Svcs | Stats | Notes
Area around 31AZ (Benson Airport)
 
Road maps at: MapQuest Bing Google
 
Aerial photo
No photo
 
Sectional chart

 
Airport distance calculator
Flying to Benson Airport? Find the distance to fly.

From to 31AZ

Sunrise and sunset
Times for 04-Mar-2021
 Local
(UTC-7)
 Zulu
(UTC)
Morning civil twilight06:2113:21
Sunrise06:4613:46
Sunset18:2001:20
Evening civil twilight18:4401:44

Current date and time
Zulu (UTC)  04-Mar-2021 11:58:42
Local (UTC-7)  04-Mar-2021 04:58:42
 
METAR
KFHU 
22nm S 
041058Z AUTO 19003KT 10SM CLR 06/M00 A3012 RMK AO2 SLP156 T00621004
KALK 
23nm S 
041056Z AUTO 23012KT 10SM CLR 05/00 A3013 RMK AO2 SLP138 T00500000
KDMA 
33nm W 
041058Z AUTO M 10SM M 09/02 A3010 RMK AO2 SLP165 T00910020 FZRANO $
KTUS 
37nm W 
041154Z 00000KT 10SM CLR 09/02 A3015 RMK AO2 T00890022
TAF
KFHU 
22nm S 
040600Z 0406/0512 24009KT 9999 SKC 530104 QNH3003INS TEMPO 0406/0409 24010G15KT BECMG 0408/0409 25009KT 9999 SKC 520102 QNH3004INS BECMG 0414/0415 27009KT 9999 SKC QNH3004INS BECMG 0419/0420 33012G20KT 9999 SKC 510004 QNH3001INS BECMG 0500/0501 33009KT 9999 FEW250 QNH3003INS BECMG 0507/0508 03009KT 9999 SCT220 QNH3006INS TX18/0422Z TN02/0413Z
NOTAMs
Click for the latest NOTAMs
NOTAMs are issued by the DoD/FAA and will open in a separate window not controlled by AirNav.

 

 
 

Would you like to see your business listed on this page?

 If your business provides an interesting product or service to pilots, flight crews, aircraft, or users of the Benson Airport, you should consider listing it here.  To start the listing process, click on the button below
 
Add a business
 

Other Pages about Benson Airport

Update a link
 
Copyright © AirNav, LLC. All rights reserved. Privacy Policy  Contact